Regional Weather Roundup
Issued by NWS

Home | Current Version | Previous Version | Text Only | Print | Product List | Glossary On
Versions: 1 2 3 4 5 6 7 8 9 10 11 12 13 14 15 16 17 18 19 20 21 22 23 24 25 26 27 28 29 30 31 32 33 34 35 36 37 38 39 40 41 42 43 44 45 46 47 48 49 50
000
ASUS43 KBIS 251610
RWRND

NORTH DAKOTA REGIONAL WEATHER ROUNDUP
NATIONAL WEATHER SERVICE BISMARCK ND
1000 AM CST SUN JAN 25 2015

NOTE: "FAIR" INDICATES FEW OR NO CLOUDS BELOW 12,000 FEET WITH NO
SIGNIFICANT WEATHER AND/OR OBSTRUCTIONS TO VISIBILITY.


NDZ001>003-009>011-017-251700-
NORTHWEST NORTH DAKOTA

CITY           SKY/WX    TMP DP  RH WIND       PRES   REMARKS
WILLISTON      CLOUDY    33  29  85 SW6       29.98F
MINOT          CLOUDY    23  19  85 W5        29.97R WCI  17
MINOT AFB      CLOUDY    22  21  98 W2        29.97F
$$

NDZ018>021-031>035-040>046-251700-
SOUTHWEST NORTH DAKOTA

CITY           SKY/WX    TMP DP  RH WIND       PRES   REMARKS
BISMARCK       CLOUDY    35  32  88 NW6       30.01R
DICKINSON      CLOUDY    33  28  81 W12       29.96S
GARRISON         N/A     32  30  92 N5        29.97R
HETTINGER ARPT CLOUDY    33  27  78 NW9       30.00F
$$

NDZ004>008-012>016-024-026-027-054-251700-
NORTHEAST NORTH DAKOTA

CITY           SKY/WX    TMP DP  RH WIND       PRES   REMARKS
GRAND FORKS    MOSUNNY   16   8  71 CALM      30.05S
GRND FRKS AFB  SUNNY     15   8  75 NW3       30.05R
DEVILS LAKE    CLOUDY    18  10  73 S5        29.99R WCI  11
$$

NDZ022-023-025-028>030-036>039-047>053-251700-
SOUTHEAST NORTH DAKOTA

CITY           SKY/WX    TMP DP  RH WIND       PRES   REMARKS
FARGO          SUNNY     20  13  74 N9        30.03F WCI   9
JAMESTOWN      CLOUDY    21  16  81 E5        29.99S WCI  15
$$



USA.gov is the U.S. government's official web portal to all federal, state and local government web resources and services.